Change the Weather History Date:

Thursday, December 19, 2013

  Actual Average (KHKY) Record (KHKY)
Temperature  
Mean Temperature 43 °F -  
Max Temperature 64 °F 51 °F 76 °F (1984)
Min Temperature 22 °F 29 °F 10 °F (1950)
Degree Days  
Heating Degree Days 22    
Moisture  
Dew Point 24 °F    
Average Humidity 63    
Maximum Humidity 94    
Minimum Humidity 21    
Precipitation  
Precipitation 0.00 in - - ()
Sea Level Pressure  
Sea Level Pressure 30.28 in    
Wind  
Wind Speed 0 mph (SW)    
Max Wind Speed 5 mph    
Max Gust Speed -    
Visibility 10 miles    
Events      
Averages and records for this station are not official NWS values.
T = Trace of Precipitation, MM = Missing Value Source: NWS Daily Summary

Daily Weather History Graph

Daily Weather History Graph

Search for Another Location

Airport or City:

Trip Planner

Search our weather history database for the weather conditions in past years. The results will help you decide how hot, cold, wet, or windy it might be!

Date:

Astronomy

Dec. 19, 2013 Rise Set
Actual Time 7:31 AM EST 5:15 PM EST
Civil Twilight 7:03 AM EST 5:44 PM EST
Nautical Twilight 6:31 AM EST 6:16 PM EST
Astronomical Twilight 6:00 AM EST 6:47 PM EST
Moon 7:36 PM EST (12/19) 8:53 AM EST (12/19)
Length of Visible Light 10h 40m
Length of Day
9h 43m
Waning Gibbous, 95% of the Moon is Illuminated
Dec 19
Waning Gibbous
Dec 25
Last Quarter
Jan 1
New
Jan 7
First Quarter
Jan 15
Full

Hourly Weather History & Observations

Time (EST) Temp. Windchill Dew Point Humidity Pressure Visibility Wind Dir Wind Speed Gust Speed Precip Events Conditions
12:15 AM 27.5 °F - 21.9 °F 80% 30.31 in 10.0 mi Calm Calm - N/A   Clear
12:35 AM 25.5 °F - 21.2 °F 84% 30.31 in 10.0 mi Calm Calm - N/A   Clear
12:55 AM 24.8 °F - 20.3 °F 83% 30.30 in 10.0 mi Calm Calm - N/A   Clear
1:15 AM 25.3 °F - 21.2 °F 84% 30.30 in 10.0 mi Calm Calm - N/A   Clear
1:35 AM 25.0 °F - 21.0 °F 85% 30.30 in 10.0 mi Calm Calm - N/A   Clear
1:55 AM 24.3 °F - 21.2 °F 88% 30.29 in 10.0 mi Calm Calm - N/A   Clear
2:15 AM 24.3 °F - 21.2 °F 88% 30.29 in 10.0 mi Calm Calm - N/A   Clear
2:35 AM 24.1 °F - 21.0 °F 88% 30.29 in 10.0 mi Calm Calm - N/A   Clear
2:55 AM 23.9 °F 19.5 °F 21.0 °F 89% 30.29 in 10.0 mi NW 3.5 mph - N/A   Clear
3:15 AM 26.6 °F - 21.9 °F 82% 30.30 in 10.0 mi Calm Calm - N/A   Clear
3:35 AM 24.1 °F - 21.2 °F 89% 30.30 in 10.0 mi Calm Calm - N/A   Clear
3:55 AM 23.2 °F - 21.0 °F 91% 30.30 in 10.0 mi Calm Calm - N/A   Clear
4:15 AM 23.0 °F - 20.7 °F 91% 30.30 in 10.0 mi Calm Calm - N/A   Clear
4:35 AM 23.2 °F - 21.4 °F 93% 30.29 in 10.0 mi Calm Calm - N/A   Clear
4:55 AM 23.0 °F - 20.8 °F 91% 30.29 in 10.0 mi Calm Calm - N/A   Clear
5:15 AM 24.8 °F - 21.0 °F 86% 30.29 in 10.0 mi Calm Calm - N/A   Clear
5:35 AM 22.8 °F - 20.5 °F 91% 30.29 in 10.0 mi Calm Calm - N/A   Clear
5:55 AM 22.6 °F - 21.0 °F 93% 30.30 in 10.0 mi Calm Calm - N/A   Clear
6:15 AM 22.1 °F - 20.3 °F 93% 30.30 in 10.0 mi Calm Calm - N/A   Clear
6:35 AM 22.6 °F - 21.0 °F 93% 30.31 in 10.0 mi Calm Calm - N/A   Clear
6:55 AM 22.8 °F - 21.2 °F 93% 30.30 in 10.0 mi Calm Calm - N/A   Clear
7:15 AM 22.3 °F - 20.7 °F 93% 30.31 in 10.0 mi Calm Calm - N/A   Clear
7:35 AM 22.8 °F - 20.7 °F 91% 30.31 in 10.0 mi Calm Calm - N/A   Clear
7:55 AM 22.8 °F - 21.4 °F 94% 30.32 in 10.0 mi Calm Calm - N/A   Clear
8:15 AM 25.9 °F - 23.9 °F 92% 30.32 in 10.0 mi Calm Calm - N/A   Clear
8:35 AM 29.5 °F - 25.3 °F 85% 30.32 in 10.0 mi Calm Calm - N/A   Clear
8:55 AM 32.4 °F - 25.0 °F 74% 30.32 in 10.0 mi Calm Calm - N/A   Clear
9:15 AM 34.7 °F - 25.3 °F 69% 30.33 in 10.0 mi Calm Calm - N/A   Clear
9:35 AM 38.5 °F - 23.9 °F 56% 30.33 in 10.0 mi Calm Calm - N/A   Clear
9:55 AM 41.4 °F - 19.6 °F 42% 30.34 in 10.0 mi Calm Calm - N/A   Clear
10:15 AM 42.6 °F - 18.7 °F 38% 30.34 in 10.0 mi Calm Calm - N/A   Clear
10:35 AM 44.6 °F - 18.7 °F 36% 30.33 in 10.0 mi Calm Calm - N/A   Clear
10:55 AM 46.0 °F 44.8 °F 19.2 °F 34% 30.33 in 10.0 mi SSW 3.5 mph - N/A   Clear
11:15 AM 48.4 °F - 19.2 °F 32% 30.32 in 10.0 mi South 4.6 mph - N/A   Clear
11:35 AM 50.4 °F - 19.2 °F 29% 30.31 in 10.0 mi SSE 3.5 mph - N/A   Clear
11:55 AM 52.0 °F - 19.9 °F 28% 30.30 in 10.0 mi Calm Calm - N/A   Clear
12:15 PM 53.8 °F - 20.5 °F 27% 30.29 in 10.0 mi Calm Calm - N/A   Clear
12:35 PM 56.1 °F - 21.2 °F 26% 30.28 in 10.0 mi Calm Calm - N/A   Clear
12:55 PM 57.4 °F - 21.2 °F 25% 30.27 in 10.0 mi Calm Calm - N/A   Clear
1:15 PM 59.0 °F - 21.7 °F 24% 30.25 in 10.0 mi Calm Calm - N/A   Clear
1:35 PM 60.6 °F - 22.6 °F 23% 30.24 in 10.0 mi Calm Calm - N/A   Clear
1:55 PM 60.8 °F - 22.3 °F 23% 30.23 in 10.0 mi SSW 3.5 mph - N/A   Clear
2:15 PM 62.6 °F - 23.2 °F 22% 30.23 in 10.0 mi Calm Calm - N/A   Clear
2:35 PM 63.9 °F - 23.7 °F 22% 30.23 in 10.0 mi Calm Calm - N/A   Clear
2:55 PM 64.2 °F - 23.4 °F 21% 30.22 in 10.0 mi Calm Calm - N/A   Clear
3:15 PM 63.7 °F - 25.0 °F 23% 30.22 in 10.0 mi Calm Calm - N/A   Clear
3:35 PM 61.9 °F - 32.4 °F 33% 30.22 in 10.0 mi Calm Calm - N/A   Clear
3:55 PM 61.3 °F - 32.9 °F 34% 30.23 in 10.0 mi Calm Calm - N/A   Clear
4:15 PM 60.3 °F - 25.7 °F 27% 30.23 in 10.0 mi Calm Calm - N/A   Clear
4:35 PM 59.2 °F - 24.3 °F 26% 30.24 in 10.0 mi SW 3.5 mph - N/A   Clear
4:55 PM 51.3 °F - 36.5 °F 57% 30.24 in 10.0 mi Calm Calm - N/A   Clear
5:15 PM 48.6 °F - 37.6 °F 66% 30.25 in 10.0 mi Calm Calm - N/A   Clear
5:35 PM 47.7 °F - 31.5 °F 53% 30.26 in 10.0 mi Calm Calm - N/A   Clear
5:55 PM 45.9 °F - 31.6 °F 58% 30.26 in 10.0 mi Calm Calm - N/A   Clear
6:15 PM 43.0 °F - 32.2 °F 66% 30.26 in 10.0 mi Calm Calm - N/A   Clear
6:35 PM 41.9 °F - 31.8 °F 67% 30.26 in 10.0 mi Calm Calm - N/A   Clear
6:55 PM 40.8 °F - 29.1 °F 63% 30.27 in 10.0 mi Calm Calm - N/A   Clear
7:15 PM 39.4 °F - 30.0 °F 69% 30.27 in 10.0 mi Calm Calm - N/A   Clear
7:35 PM 39.4 °F - 29.1 °F 67% 30.27 in 10.0 mi Calm Calm - N/A   Clear
7:55 PM 39.4 °F - 28.9 °F 66% 30.26 in 10.0 mi Calm Calm - N/A   Clear
8:15 PM 38.3 °F - 28.2 °F 67% 30.26 in 10.0 mi Calm Calm - N/A   Clear
8:35 PM 37.2 °F - 27.5 °F 68% 30.26 in 10.0 mi Calm Calm - N/A   Clear
8:55 PM 37.4 °F - 27.0 °F 66% 30.26 in 10.0 mi Calm Calm - N/A   Clear
9:15 PM 37.0 °F - 27.5 °F 68% 30.26 in 10.0 mi Calm Calm - N/A   Clear
9:35 PM 37.4 °F - 27.5 °F 67% 30.26 in 10.0 mi Calm Calm - N/A   Clear
9:55 PM 38.1 °F - 27.7 °F 66% 30.27 in 10.0 mi Calm Calm - N/A   Clear
10:15 PM 36.5 °F - 28.0 °F 71% 30.27 in 10.0 mi Calm Calm - N/A   Clear
10:35 PM 36.1 °F 33.5 °F 27.7 °F 71% 30.27 in 10.0 mi NNW 3.5 mph - N/A   Clear
10:55 PM 36.1 °F - 27.9 °F 72% 30.27 in 10.0 mi Calm Calm - N/A   Clear
11:15 PM 38.7 °F - 28.0 °F 66% 30.27 in 10.0 mi Calm Calm - N/A   Clear
11:35 PM 35.4 °F - 28.2 °F 75% 30.26 in 10.0 mi Calm Calm - N/A   Clear
11:55 PM 35.8 °F - 28.8 °F 76% 30.26 in 10.0 mi Calm Calm - N/A   Clear